�N����,����,�~����,�C��,���x,�C��,����,���ϕ���,�ő�u�ԕ���,�ő厞����,���˗�,�I�_���x,�n�����x,�ő啗���N��,DTYPE
"19/12/20","00:10",0.0,6.8,93.0,1014.5,297.4,1.2,2.0,306.8,0.00,5.8,9.7,"00:06:48",1
"19/12/20","00:20",0.0,6.7,93.2,1014.0,293.5,1.5,2.1,314.3,0.00,5.7,9.7,"00:17:52",1
"19/12/20","00:30",0.0,6.7,93.3,1014.0,302.5,1.0,1.6,290.9,0.00,5.7,9.5,"00:28:48",1
"19/12/20","00:40",0.0,6.6,93.3,1014.0,290.9,1.3,1.9,307.2,0.00,5.6,9.8,"00:37:20",1
"19/12/20","00:50",0.0,6.5,93.5,1014.5,297.2,1.3,2.0,317.0,0.00,5.6,9.7,"00:41:28",1
"19/12/20","01:00",0.0,6.4,93.6,1014.5,288.8,1.1,1.9,316.2,0.00,5.5,9.7,"00:55:20",1
"19/12/20","01:10",0.0,6.5,93.7,1014.2,307.4,1.1,2.1,340.7,0.00,5.6,9.7,"01:02:56",1
"19/12/20","01:20",0.0,6.5,93.8,1014.5,304.9,1.3,2.2,323.4,0.00,5.6,9.6,"01:15:36",1
"19/12/20","01:30",0.0,6.4,94.0,1014.7,314.7,1.6,2.2,317.0,0.00,5.5,9.7,"01:20:48",1
"19/12/20","01:40",0.0,6.5,94.0,1013.8,314.7,1.0,2.2,306.6,0.00,5.6,9.5,"01:38:00",1
"19/12/20","01:50",0.0,6.4,94.1,1013.8,291.1,0.8,1.7,303.9,0.00,5.6,9.7,"01:40:48",1
"19/12/20","02:00",0.0,6.4,94.3,1013.8,307.1,1.5,2.7,324.2,0.00,5.6,9.4,"01:56:16",1
"19/12/20","02:10",0.0,6.4,94.4,1013.8,309.3,1.1,2.4,310.6,0.00,5.6,9.7,"02:02:42",1
"19/12/20","02:20",0.0,6.4,94.6,1013.8,286.5,0.5,1.1,298.2,0.00,5.6,9.4,"02:13:28",1
"19/12/20","02:30",0.0,6.4,94.7,1014.7,290.2,1.1,2.1,317.5,0.00,5.7,9.3,"02:29:12",1
"19/12/20","02:40",0.0,6.5,94.8,1014.5,313.4,1.0,2.4,321.2,0.00,5.8,9.4,"02:36:16",1
"19/12/20","02:50",0.0,6.7,94.9,1014.7,324.5,1.5,3.3,318.2,0.00,6.0,9.6,"02:49:44",1
"19/12/20","03:00",0.0,6.6,95.0,1015.6,309.3,0.8,1.7,316.8,0.00,5.9,9.6,"02:57:44",1
"19/12/20","03:10",0.0,6.7,95.1,1015.4,300.9,1.5,2.2,323.6,0.00,6.0,9.5,"03:07:12",1
"19/12/20","03:20",0.0,7.0,95.2,1014.9,309.7,2.0,3.6,323.2,0.00,6.3,9.4,"03:13:52",1
"19/12/20","03:30",0.0,7.2,95.2,1015.2,321.5,1.7,2.6,328.2,0.00,6.5,9.5,"03:27:12",1
"19/12/20","03:40",0.0,7.2,95.2,1014.9,318.4,2.5,3.9,322.7,0.00,6.5,9.3,"03:37:44",1
"19/12/20","03:50",0.0,7.3,95.1,1015.4,319.9,3.0,3.9,320.0,0.00,6.6,9.5,"03:43:04",1
"19/12/20","04:00",0.0,7.3,95.0,1015.4,322.3,2.6,3.4,325.1,0.00,6.6,9.4,"03:59:12",1
"19/12/20","04:10",0.0,7.3,94.9,1016.1,320.7,2.5,3.6,312.2,0.00,6.6,9.4,"04:01:36",1
"19/12/20","04:20",0.0,7.1,94.9,1015.4,319.3,2.0,3.5,327.5,0.00,6.4,9.3,"04:18:08",1
"19/12/20","04:30",0.0,7.1,94.9,1015.2,333.1,1.6,2.5,326.4,0.00,6.4,9.3,"04:26:00",1
"19/12/20","04:40",0.0,6.9,94.9,1015.2,324.4,1.8,3.1,325.1,0.00,6.2,9.4,"04:37:52",1
"19/12/20","04:50",0.0,6.9,94.9,1015.4,314.7,2.0,2.6,319.8,0.00,6.2,9.4,"04:44:32",1
"19/12/20","05:00",0.0,7.1,94.8,1015.2,324.7,2.1,3.4,329.3,0.00,6.4,9.3,"04:52:32",1
"19/12/20","05:10",0.0,6.9,94.7,1015.2,317.2,2.1,2.8,316.3,0.00,6.1,9.4,"05:09:52",1
"19/12/20","05:20",0.0,7.0,94.8,1015.4,318.5,2.5,4.0,319.6,0.00,6.3,9.6,"05:19:30",1
"19/12/20","05:30",0.0,7.3,94.6,1015.6,320.7,2.6,4.2,328.5,0.00,6.5,9.4,"05:24:32",1
"19/12/20","05:40",0.0,7.3,94.4,1015.6,328.0,2.3,4.1,330.5,0.00,6.5,9.2,"05:35:28",1
"19/12/20","05:50",0.0,7.3,94.3,1015.9,322.8,2.8,4.0,338.9,0.00,6.5,9.4,"05:43:20",1
"19/12/20","06:00",0.0,7.3,94.2,1016.1,324.6,2.7,4.0,337.3,0.00,6.5,9.2,"05:50:24",1
"19/12/20","06:10",0.0,7.4,94.1,1016.1,316.5,2.1,2.9,307.9,0.00,6.6,9.3,"06:01:20",1
"19/12/20","06:20",0.0,7.2,93.9,1016.1,321.2,1.8,3.1,335.1,0.00,6.3,9.4,"06:10:56",1
"19/12/20","06:30",0.0,7.0,93.8,1016.1,321.3,1.8,2.6,327.4,0.00,6.1,9.2,"06:24:16",1
"19/12/20","06:40",0.0,6.8,93.7,1016.4,316.3,2.0,2.9,316.3,0.00,5.9,9.3,"06:32:16",1
"19/12/20","06:50",0.0,6.6,93.7,1016.1,318.3,2.2,4.0,315.3,0.00,5.7,9.2,"06:43:12",1
"19/12/20","07:00",0.0,6.1,93.6,1016.8,316.1,1.8,2.8,322.4,0.00,5.2,9.2,"06:57:36",1
"19/12/20","07:10",0.0,5.8,93.7,1016.6,301.8,1.3,2.5,308.2,0.00,4.9,9.3,"07:06:08",1
"19/12/20","07:20",0.0,5.6,93.7,1016.6,353.1,0.6,2.4,327.3,0.00,4.7,9.2,"07:11:20",1
"19/12/20","07:30",0.0,5.1,93.7,1016.8,298.4,0.8,1.8,328.4,0.00,4.2,9.2,"07:21:12",1
"19/12/20","07:40",0.0,4.6,93.9,1016.6,279.5,0.5,1.0,289.9,0.00,3.7,9.0,"07:30:08",1
"19/12/20","07:50",0.0,4.2,94.1,1016.6,275.7,0.7,1.3,252.9,0.00,3.4,8.9,"07:48:08",1
"19/12/20","08:00",0.0,4.2,94.2,1016.8,305.6,1.2,2.2,304.7,0.00,3.4,9.0,"07:58:18",1
"19/12/20","08:10",0.0,4.2,94.3,1016.8,297.9,1.1,2.4,314.6,0.00,3.4,8.7,"08:05:22",1
"19/12/20","08:20",0.0,4.5,94.3,1017.1,302.3,1.5,2.7,324.3,0.00,3.7,8.9,"08:14:00",1
"19/12/20","08:30",0.0,4.8,94.5,1016.6,294.2,1.1,2.1,310.3,0.01,4.0,8.8,"08:23:20",1
"19/12/20","08:40",0.0,5.7,94.5,1017.1,335.6,0.8,2.2,344.9,0.01,4.9,8.7,"08:30:32",1
"19/12/20","08:50",0.0,6.4,94.5,1016.8,305.0,0.8,1.9,317.2,0.02,5.6,8.7,"08:41:28",1
"19/12/20","09:00",0.0,7.1,94.5,1017.1,308.1,2.0,3.1,326.9,0.04,6.3,8.7,"08:58:00",1
"19/12/20","09:10",0.0,7.9,94.4,1017.3,292.8,0.8,2.2,330.9,0.07,7.1,8.7,"09:00:48",1
"19/12/20","09:20",0.0,8.4,94.1,1017.5,240.1,0.5,1.1,226.9,0.10,7.5,8.8,"09:12:08",1
"19/12/20","09:30",0.0,8.6,93.4,1017.5,182.4,0.8,1.8,95.3,0.12,7.6,9.0,"09:27:12",1
"19/12/20","09:40",0.0,9.3,93.0,1018.7,252.3,1.2,2.6,250.7,0.15,8.3,8.9,"09:32:48",1
"19/12/20","09:50",0.0,9.5,91.0,1018.5,282.1,1.8,3.3,265.1,0.17,8.1,9.2,"09:42:24",1
"19/12/20","10:00",0.0,10.0,88.2,1018.7,284.4,1.7,3.7,323.7,0.20,8.2,9.3,"09:50:32",1
"19/12/20","10:10",0.0,10.5,83.8,1019.0,293.4,1.8,3.4,320.2,0.22,7.9,9.2,"10:00:24",1
"19/12/20","10:20",0.0,10.8,78.4,1018.7,285.2,1.8,4.5,269.4,0.24,7.2,9.5,"10:18:40",1
"19/12/20","10:30",0.0,10.9,72.4,1018.5,270.5,2.5,4.7,289.3,0.27,6.2,9.5,"10:20:16",1
"19/12/20","10:40",0.0,11.4,69.3,1018.5,283.5,2.1,3.6,312.4,0.29,6.0,9.8,"10:34:24",1
"19/12/20","10:50",0.0,11.6,68.0,1018.5,287.0,2.2,4.0,323.2,0.31,5.9,10.2,"10:41:12",1
"19/12/20","11:00",0.0,12.1,67.1,1018.0,280.3,1.8,4.0,246.0,0.33,6.2,10.0,"10:54:32",1
"19/12/20","11:10",0.0,12.1,65.6,1018.0,288.2,2.2,4.7,340.3,0.35,5.9,10.1,"11:00:16",1
"19/12/20","11:20",0.0,12.1,64.2,1018.0,288.2,2.3,4.2,339.9,0.36,5.6,10.3,"11:19:04",1
"19/12/20","11:30",0.0,12.0,63.8,1017.8,283.0,2.5,5.7,316.3,0.35,5.4,10.5,"11:26:40",1
"19/12/20","11:40",0.0,12.5,63.3,1017.8,274.5,2.3,4.8,345.2,0.39,5.8,10.7,"11:30:08",1
"19/12/20","11:50",0.0,12.6,62.9,1017.3,279.8,2.3,5.1,331.9,0.39,5.8,10.6,"11:45:28",1
"19/12/20","12:00",0.0,12.7,61.2,1017.8,267.4,2.6,5.1,239.0,0.41,5.5,10.9,"11:52:48",1
"19/12/20","12:10",0.0,13.1,59.9,1017.1,295.2,2.3,5.4,332.3,0.40,5.5,11.0,"12:00:02",1
"19/12/20","12:20",0.0,13.1,59.3,1017.1,274.1,2.5,5.8,320.5,0.41,5.4,11.1,"12:10:08",1
"19/12/20","12:30",0.0,13.3,59.3,1016.6,300.1,2.8,5.6,348.4,0.40,5.6,11.4,"12:25:20",1
"19/12/20","12:40",0.0,13.1,59.5,1016.8,293.3,3.0,5.7,236.4,0.38,5.4,11.3,"12:35:28",1
"19/12/20","12:50",0.0,13.0,59.5,1016.8,296.2,3.0,6.3,339.5,0.40,5.3,11.6,"12:40:02",1
"19/12/20","13:00",0.0,12.6,61.3,1017.1,325.7,3.9,8.0,336.4,0.40,5.4,11.7,"12:50:56",1
"19/12/20","13:10",0.0,12.4,62.2,1017.1,301.1,3.5,5.8,331.3,0.36,5.4,11.8,"13:00:16",1
"19/12/20","13:20",0.0,12.2,62.6,1016.4,306.7,3.1,7.2,297.9,0.34,5.3,11.8,"13:15:04",1
"19/12/20","13:30",0.0,12.3,63.4,1016.6,318.7,3.5,7.5,346.0,0.35,5.6,12.0,"13:24:56",1
"19/12/20","13:40",0.0,12.4,62.3,1016.6,326.7,3.7,6.8,332.8,0.35,5.4,11.7,"13:38:16",1
"19/12/20","13:50",0.0,12.3,62.8,1016.6,335.4,4.0,6.4,336.6,0.36,5.5,12.2,"13:43:20",1
"19/12/20","14:00",0.0,12.2,63.3,1016.6,337.6,4.0,6.7,336.2,0.35,5.5,12.2,"13:54:08",1
"19/12/20","14:10",0.0,12.2,63.2,1016.4,330.6,3.6,7.2,334.6,0.34,5.5,12.2,"14:07:28",1
"19/12/20","14:20",0.0,12.1,64.3,1016.6,334.3,3.9,8.1,336.2,0.32,5.6,12.3,"14:10:40",1
"19/12/20","14:30",0.0,11.9,65.0,1016.4,333.9,3.7,10.1,328.3,0.31,5.6,12.3,"14:27:36",1
"19/12/20","14:40",0.0,11.6,66.6,1017.1,329.9,5.0,9.0,326.7,0.30,5.6,12.2,"14:35:36",1
"19/12/20","14:50",0.0,11.5,67.8,1016.8,321.3,4.4,7.9,310.3,0.26,5.8,12.4,"14:49:36",1
"19/12/20","15:00",0.0,11.3,69.4,1017.1,322.5,3.7,6.7,340.0,0.25,5.9,12.2,"14:54:16",1
"19/12/20","15:10",0.0,11.4,68.7,1017.3,331.3,3.5,5.5,330.4,0.24,5.9,12.2,"15:06:24",1
"19/12/20","15:20",0.0,11.3,67.6,1017.5,326.1,3.2,7.2,343.8,0.19,5.6,12.2,"15:14:16",1
"19/12/20","15:30",0.0,11.0,67.2,1017.8,327.5,4.0,7.7,323.9,0.17,5.2,12.3,"15:22:56",1
"19/12/20","15:40",0.0,10.6,66.4,1017.8,327.3,5.0,9.6,344.3,0.12,4.6,12.3,"15:35:52",1
"19/12/20","15:50",0.0,10.6,67.2,1017.8,329.4,4.2,7.1,329.9,0.11,4.8,12.1,"15:44:48",1
"19/12/20","16:00",0.0,10.8,67.2,1018.0,322.9,3.2,6.5,350.3,0.10,5.0,12.0,"15:52:00",1
"19/12/20","16:10",0.0,10.4,66.9,1018.0,334.2,2.7,5.2,327.1,0.02,4.6,12.0,"16:09:28",1
"19/12/20","16:20",0.0,10.0,67.5,1018.2,323.4,3.9,7.8,337.3,0.02,4.3,11.8,"16:16:24",1
"19/12/20","16:30",0.0,9.8,67.9,1018.2,319.9,3.2,7.1,333.3,0.01,4.2,11.9,"16:23:44",1
"19/12/20","16:40",0.0,9.8,68.7,1018.7,318.0,2.8,4.7,336.9,0.00,4.4,11.6,"16:37:20",1
"19/12/20","16:50",0.0,9.6,69.4,1018.7,313.6,3.0,6.2,341.3,0.00,4.3,11.6,"16:47:28",1
"19/12/20","17:00",0.0,9.6,69.9,1019.0,312.2,3.0,5.4,337.6,0.00,4.4,11.5,"16:50:32",1
"19/12/20","17:10",0.0,9.6,70.6,1019.0,326.3,2.5,4.3,336.3,0.00,4.6,11.5,"17:06:00",1
"19/12/20","17:20",0.0,9.1,72.4,1019.2,334.3,2.3,5.0,330.2,0.00,4.4,11.2,"17:16:56",1
"19/12/20","17:30",0.0,8.9,73.8,1019.2,343.1,2.0,3.9,346.5,0.00,4.5,11.2,"17:20:40",1
"19/12/20","17:40",0.0,8.5,74.9,1019.2,323.9,2.0,3.6,339.9,0.00,4.3,11.2,"17:30:24",1
"19/12/20","17:50",0.0,8.1,75.7,1019.7,304.1,1.6,2.7,320.2,0.00,4.1,11.1,"17:41:20",1
"19/12/20","18:00",0.0,7.9,77.0,1019.9,322.3,1.7,2.4,322.9,0.00,4.2,11.2,"17:51:28",1
"19/12/20","18:10",0.0,7.6,78.1,1019.9,324.6,1.7,2.6,333.1,0.00,4.1,10.8,"18:06:48",1
"19/12/20","18:20",0.0,7.1,79.5,1019.4,304.7,1.6,2.1,318.1,0.00,3.8,10.9,"18:16:32",1
"19/12/20","18:30",0.0,7.0,80.8,1019.9,314.3,2.0,2.6,316.2,0.00,4.0,10.7,"18:27:36",1
"19/12/20","18:40",0.0,6.9,81.9,1019.7,304.9,1.7,3.1,319.7,0.00,4.1,10.6,"18:37:04",1
"19/12/20","18:50",0.0,6.8,82.7,1019.9,295.8,1.8,2.5,320.7,0.00,4.1,10.6,"18:42:48",1
"19/12/20","19:00",0.0,6.6,83.3,1019.7,314.2,2.1,2.8,336.8,0.00,4.0,10.3,"18:54:08",1
"19/12/20","19:10",0.0,6.4,83.9,1019.7,314.9,1.7,2.5,326.3,0.00,3.9,10.4,"19:08:16",1
"19/12/20","19:20",0.0,6.2,84.5,1019.7,312.1,1.7,2.2,313.3,0.00,3.8,10.4,"19:12:16",1
"19/12/20","19:30",0.0,6.2,85.0,1019.7,307.6,1.7,2.0,306.9,0.00,3.9,10.3,"19:21:44",1
"19/12/20","19:40",0.0,6.3,85.3,1019.4,311.4,2.0,2.7,317.1,0.00,4.1,10.4,"19:31:52",1
"19/12/20","19:50",0.0,6.4,85.7,1019.4,317.5,2.1,2.7,335.7,0.00,4.2,10.2,"19:46:32",1
"19/12/20","20:00",0.0,6.5,86.0,1019.9,321.1,2.5,3.7,316.7,0.00,4.4,10.1,"19:58:08",1
"19/12/20","20:10",0.0,6.5,86.1,1019.9,316.6,2.1,3.1,326.5,0.00,4.4,10.1,"20:02:56",1
"19/12/20","20:20",0.0,6.5,86.3,1019.7,320.3,2.1,3.2,321.8,0.00,4.4,9.9,"20:10:08",1
"19/12/20","20:30",0.0,6.4,86.4,1019.4,315.7,1.7,2.4,317.0,0.00,4.3,10.0,"20:20:40",1
"19/12/20","20:40",0.0,6.4,86.6,1019.7,310.2,1.8,2.8,322.3,0.00,4.4,10.0,"20:38:16",1
"19/12/20","20:50",0.0,6.4,86.7,1019.7,311.7,1.6,2.4,320.2,0.00,4.4,10.1,"20:42:16",1
"19/12/20","21:00",0.0,6.4,86.9,1019.9,306.9,2.2,3.2,314.0,0.00,4.4,10.0,"20:54:48",1
"19/12/20","21:10",0.0,6.3,87.0,1019.7,321.4,2.0,3.2,326.5,0.00,4.3,9.9,"21:01:36",1
"19/12/20","21:20",0.0,6.2,87.2,1019.4,314.3,2.0,3.1,309.8,0.00,4.3,10.0,"21:17:36",1
"19/12/20","21:30",0.0,6.5,87.1,1019.4,320.5,3.0,4.1,326.5,0.00,4.6,9.8,"21:24:40",1
"19/12/20","21:40",0.0,6.7,86.8,1019.4,314.3,2.5,4.4,325.6,0.00,4.7,9.5,"21:38:40",1
"19/12/20","21:50",0.0,6.8,86.3,1020.1,319.8,2.7,3.4,331.2,0.00,4.7,9.9,"21:43:28",1
"19/12/20","22:00",0.0,6.9,85.8,1020.1,320.5,3.1,4.5,328.7,0.00,4.7,9.8,"21:57:28",1
"19/12/20","22:10",0.0,6.9,85.4,1020.6,329.6,3.0,4.8,338.2,0.00,4.7,9.6,"22:02:48",1
"19/12/20","22:20",0.0,7.0,85.0,1020.6,330.8,3.0,5.5,331.3,0.00,4.7,9.7,"22:10:32",1
"19/12/20","22:30",0.0,7.1,84.5,1020.1,327.0,3.4,5.1,340.7,0.00,4.7,9.7,"22:25:04",1
"19/12/20","22:40",0.0,7.0,84.1,1020.4,323.8,3.1,4.4,328.8,0.00,4.5,9.6,"22:39:28",1
"19/12/20","22:50",0.0,7.0,83.8,1020.4,331.1,2.7,4.5,327.9,0.00,4.5,9.5,"22:40:16",1
"19/12/20","23:00",0.0,7.0,83.6,1020.6,330.5,3.0,4.3,341.9,0.00,4.5,9.7,"22:50:48",1
"19/12/20","23:10",0.0,7.1,83.3,1020.8,318.5,3.0,4.9,336.1,0.00,4.5,9.5,"23:02:16",1
"19/12/20","23:20",0.0,6.9,83.4,1020.8,319.6,3.1,5.0,337.8,0.00,4.3,9.5,"23:18:00",1
"19/12/20","23:30",0.0,6.9,83.6,1021.5,316.9,2.3,3.6,326.5,0.00,4.4,9.6,"23:21:20",1
"19/12/20","23:40",0.0,6.8,83.8,1020.8,311.3,2.3,3.4,315.7,0.00,4.3,9.6,"23:35:20",1
"19/12/20","23:50",0.0,6.8,84.0,1020.8,324.6,3.1,4.2,333.9,0.00,4.3,9.4,"23:43:28",1
"19/12/20","24:00",0.0,6.8,84.0,1020.6,329.6,2.5,3.7,333.2,0.00,4.3,9.4,"23:53:04",1
